Погода в Червленной

Россия / Чеченская Республика     43°30′09″N   45°53′07″E
темп.,
°C
ветер,
м/с
пор.,
м/с
влажн.,
%
обл.,
%
осадки,
мм/ч
давл.,
гПа
погр.,
м
29 июня, ср
ср2900:00+20зюз22660 0.0 101257
03:00+19з347639 0.0 101275
06:00+20юз348193 0.8 1012156
09:00+26зсз22470 1.4 1012815
12:00+31ссз32271 0.0 10112011
15:00+32с3223100 0.0 10102506
18:00+31ссз2226100 0.0 10101740
21:00+24юв34405 0.0 101159
30 июня, чт
чт3000:00+23юз344846 0.0 101170
03:00+20в116014 0.0 101222
06:00+22вюв125716 0.0 1012167
09:00+27всв324458 0.0 1012990
12:00+32св443227 0.0 10102256
15:00+31в5432100 0.0 10091850
18:00+28в893596 0.0 10101024
21:00+19в4117696 2.2 1012305
1 июля, пт
пт100:00+19в267748 0.4 1011183
03:00+18всв228398 0.6 101162
06:00+19вюв2479100 0.1 1012215
09:00+23в465476 0.1 1011741
12:00+28в553153 0.0 10111621
15:00+30всв442796 0.0 10092196
18:00+24ююв464784 0.3 1010264
21:00+23ююз1152100 0.3 101255
2 июля, сб
сб200:00+21юз4660100 0.1 1011309
03:00+20юз3669100 0.1 1011255
06:00+21зюз3669100 0.0 1012296
09:00+21з466395 0.4 1013798
12:00+25зсз453870 0.2 10141613
15:00+25з573440 0.3 10131941
18:00+26сз682692 0.0 10132237
21:00+20з47391 0.0 1016159
3 июля, вс
вс300:00+18з48643 0.0 1016151
03:00+17з47601 0.0 1016143
06:00+19з47480 0.0 1016248
09:00+25зсз45280 0.0 10161572
12:00+29сз57211 0.0 10152690
15:00+30сз56194 0.0 10142946
18:00+28сз55211 0.0 10152634
21:00+22з34330 0.0 101655